Weather History for KMFV

Nearest airport to NA, NA.

See history from more local stations
Change the Weather History Date:

Friday, July 19, 2013

  Actual Average (KWAL) Record (KWAL)
Temperature  
Mean Temperature 87 °F 77 °F  
Max Temperature 96 °F 85 °F 93 °F (1977)
Min Temperature 78 °F 69 °F 59 °F (1985)
Degree Days  
Heating Degree Days 0    
Month to date heating degree days  
Since 1 June heating degree days  
Since 1 July heating degree days  
Cooling Degree Days 22    
Month to date cooling degree days  
Year to date cooling degree days  
Since 1 June cooling degree days  
Growing Degree Days 37 (Base 50)    
Moisture  
Dew Point 75 °F    
Average Humidity 66    
Maximum Humidity 89    
Minimum Humidity 44    
Precipitation  
Precipitation 0.00 in 0.14 in 0.56 in (2000)
Month to date precipitation 2.22  
Year to date precipitation 21.33  
Sea Level Pressure  
Sea Level Pressure 30.01 in    
Wind  
Wind Speed 8 mph (SW)    
Max Wind Speed 17 mph    
Max Gust Speed 22 mph    
Visibility 9 miles    
Events      
T = Trace of Precipitation, MM = Missing Value Source: NWS Daily Summary

Daily Weather History Graph

Daily Weather History Graph

Search for Another Location

Airport or City:

Trip Planner

Search our weather history database for the weather conditions in past years. The results will help you decide how hot, cold, wet, or windy it might be!

Date:

Astronomy

Jul. 19, 2013 Rise Set
Actual Time 5:56 AM EDT 8:21 PM EDT
Civil Twilight 5:26 AM EDT 8:51 PM EDT
Nautical Twilight 4:49 AM EDT 9:28 PM EDT
Astronomical Twilight 4:08 AM EDT 10:09 PM EDT
Moon 5:21 PM EDT (7/19) 2:35 AM EDT (7/19)
Length of Visible Light 15h 25m
Length of Day
14h 25m
Waxing Gibbous, 86% of the Moon is Illuminated
Jul 19
Waxing Gibbous
Jul 22
Full
Jul 29
Last Quarter
Aug 6
New
Aug 14
First Quarter

Hourly Weather History & Observations

Time (EDT) Temp. Heat Index Dew Point Humidity Pressure Visibility Wind Dir Wind Speed Gust Speed Precip Events Conditions
12:15 AM 82.4 °F 88.2 °F 73.4 °F 74% 30.06 in 10.0 mi SSW 8.1 mph - N/A   Clear
12:35 AM 82.4 °F 88.2 °F 73.4 °F 74% 30.06 in 10.0 mi SSW 10.4 mph - N/A   Clear
12:55 AM 82.4 °F 88.2 °F 73.4 °F 74% 30.06 in 10.0 mi SSW 8.1 mph - N/A   Clear
1:16 AM 82.4 °F 88.2 °F 73.4 °F 74% 30.06 in 10.0 mi SSW 6.9 mph - N/A   Clear
1:35 AM 82.4 °F 88.2 °F 73.4 °F 74% 30.06 in 10.0 mi SSW 5.8 mph - N/A   Clear
1:55 AM 82.4 °F 88.2 °F 73.4 °F 74% 30.06 in 10.0 mi SSW 5.8 mph - N/A   Clear
2:16 AM 82.4 °F 89.5 °F 75.2 °F 79% 30.05 in 10.0 mi SSW 4.6 mph - N/A   Clear
2:35 AM 80.6 °F 86.2 °F 75.2 °F 84% 30.05 in 10.0 mi SSW 4.6 mph - N/A   Clear
2:55 AM 80.6 °F 86.2 °F 75.2 °F 84% 30.05 in 10.0 mi SSW 4.6 mph - N/A   Clear
3:15 AM 80.6 °F 86.2 °F 75.2 °F 84% 30.04 in 10.0 mi South 4.6 mph - N/A   Clear
3:37 AM 80.6 °F 86.2 °F 75.2 °F 84% 30.04 in 10.0 mi SSW 3.5 mph - N/A   Clear
3:55 AM 80.6 °F 86.2 °F 75.2 °F 84% 30.04 in 10.0 mi SSW 3.5 mph - N/A   Clear
4:17 AM 80.6 °F 86.2 °F 75.2 °F 84% 30.04 in 7.0 mi SSW 4.6 mph - N/A   Clear
4:35 AM 78.8 °F - 75.2 °F 89% 30.04 in 7.0 mi Calm Calm - N/A   Clear
4:55 AM 78.8 °F - 75.2 °F 89% 30.04 in 7.0 mi SSW 3.5 mph - N/A   Clear
5:16 AM 78.8 °F - 75.2 °F 89% 30.04 in 5.0 mi SSW 3.5 mph - N/A   Clear
5:36 AM 78.8 °F - 75.2 °F 89% 30.04 in 5.0 mi Calm Calm - N/A   Clear
5:55 AM 78.8 °F - 75.2 °F 89% 30.05 in 5.0 mi SW 3.5 mph - N/A   Clear
6:15 AM 78.8 °F - 75.2 °F 89% 30.05 in 4.0 mi SW 4.6 mph - N/A   Clear
6:36 AM - - - N/A% 30.05 in 5.0 mi SW 4.6 mph - N/A   Clear
6:55 AM 80.6 °F 87.1 °F 77.0 °F 89% 30.05 in 5.0 mi SW 4.6 mph - N/A   Clear
7:15 AM 82.4 °F 92.4 °F 78.8 °F 89% 30.05 in 7.0 mi WSW 4.6 mph - N/A   Clear
7:36 AM 84.2 °F 96.1 °F 78.8 °F 84% 30.05 in 7.0 mi SW 4.6 mph - N/A   Clear
7:56 AM 84.2 °F 96.1 °F 78.8 °F 84% 30.05 in 7.0 mi WSW 3.5 mph - N/A   Clear
8:15 AM 86.0 °F 99.3 °F 78.8 °F 79% 30.05 in 7.0 mi SW 5.8 mph - N/A   Clear
8:35 AM 87.8 °F 102.5 °F 78.8 °F 75% 30.06 in 10.0 mi SW 5.8 mph - N/A   Clear
8:57 AM 89.6 °F 104.7 °F 78.8 °F 70% 30.06 in 10.0 mi WSW 8.1 mph - N/A   Clear
9:15 AM 89.6 °F 104.7 °F 78.8 °F 70% 30.05 in 10.0 mi SW 5.8 mph - N/A   Clear
9:36 AM 89.6 °F 104.7 °F 78.8 °F 70% 30.05 in 10.0 mi SW 5.8 mph - N/A   Clear
9:55 AM 91.4 °F 107.2 °F 78.8 °F 66% 30.05 in 10.0 mi SW 6.9 mph - N/A   Clear
10:15 AM 91.4 °F 105.1 °F 77.0 °F 63% 30.04 in 10.0 mi SSW 3.5 mph - N/A   Clear
10:35 AM 93.2 °F 107.2 °F 77.0 °F 59% 30.04 in 10.0 mi SSW 8.1 mph - N/A   Clear
10:55 AM 93.2 °F 105.0 °F 75.2 °F 56% 30.04 in 10.0 mi SSW 8.1 mph - N/A   Clear
11:15 AM 95.0 °F 107.4 °F 75.2 °F 53% 30.04 in 10.0 mi WSW 6.9 mph - N/A   Clear
11:35 AM 95.0 °F 104.5 °F 73.4 °F 49% 30.04 in 10.0 mi SSW 8.1 mph - N/A   Clear
11:56 AM 95.0 °F 104.5 °F 73.4 °F 49% 30.04 in 10.0 mi SW 9.2 mph - N/A   Clear
12:15 PM 95.0 °F 107.4 °F 75.2 °F 53% 30.03 in 10.0 mi WSW 4.6 mph - N/A   Clear
12:35 PM 96.8 °F 107.3 °F 73.4 °F 47% 30.02 in 10.0 mi SW 8.1 mph - N/A   Clear
12:55 PM 96.8 °F 107.3 °F 73.4 °F 47% 30.01 in 10.0 mi SW 12.7 mph - N/A   Clear
1:15 PM 96.8 °F 105.1 °F 71.6 °F 44% 30.01 in 10.0 mi SW 15.0 mph 20.7 mph N/A   Clear
1:35 PM 96.8 °F 107.3 °F 73.4 °F 47% 30.01 in 10.0 mi SW 12.7 mph - N/A   Clear
1:56 PM 96.8 °F 109.6 °F 75.2 °F 50% 30.00 in 10.0 mi SW 10.4 mph - N/A   Clear
2:15 PM 95.0 °F 104.5 °F 73.4 °F 49% 30.00 in 10.0 mi SW 11.5 mph 20.7 mph N/A   Clear
2:35 PM 95.0 °F 104.5 °F 73.4 °F 49% 29.99 in 10.0 mi SW 13.8 mph 19.6 mph N/A   Clear
2:55 PM 96.8 °F 107.3 °F 73.4 °F 47% 29.98 in 10.0 mi SW 11.5 mph 21.9 mph N/A   Clear
3:15 PM 96.8 °F 109.6 °F 75.2 °F 50% 29.98 in 10.0 mi SW 16.1 mph 19.6 mph N/A   Clear
3:35 PM 96.8 °F 107.3 °F 73.4 °F 47% 29.97 in 10.0 mi SW 15.0 mph 21.9 mph N/A   Clear
3:55 PM 96.8 °F 107.3 °F 73.4 °F 47% 29.96 in 10.0 mi SW 13.8 mph 20.7 mph N/A   Clear
4:15 PM 96.8 °F 107.3 °F 73.4 °F 47% 29.95 in 10.0 mi SW 17.3 mph 21.9 mph N/A   Clear
4:35 PM 96.8 °F 109.6 °F 75.2 °F 50% 29.95 in 10.0 mi SW 12.7 mph 17.3 mph N/A   Scattered Clouds
4:55 PM 95.0 °F 104.5 °F 73.4 °F 49% 29.94 in 10.0 mi SW 13.8 mph 21.9 mph N/A   Clear
5:15 PM 95.0 °F 104.5 °F 73.4 °F 49% 29.94 in 10.0 mi SSW 13.8 mph 18.4 mph N/A   Clear
5:37 PM 95.0 °F 104.5 °F 73.4 °F 49% 29.94 in 10.0 mi WSW 15.0 mph 20.7 mph N/A   Clear
5:55 PM 95.0 °F 104.5 °F 73.4 °F 49% 29.94 in 10.0 mi SW 15.0 mph 21.9 mph N/A   Clear
6:15 PM 93.2 °F 102.4 °F 73.4 °F 52% 29.93 in 10.0 mi SW 11.5 mph 21.9 mph N/A   Clear
6:35 PM 93.2 °F 105.0 °F 75.2 °F 56% 29.94 in 10.0 mi SW 13.8 mph 19.6 mph N/A   Clear
6:55 PM 93.2 °F 105.0 °F 75.2 °F 56% 29.94 in 10.0 mi WSW 12.7 mph 20.7 mph N/A   Clear
7:15 PM 91.4 °F 102.5 °F 75.2 °F 59% 29.94 in 10.0 mi SW 9.2 mph - N/A   Clear
7:36 PM 91.4 °F 102.5 °F 75.2 °F 59% 29.94 in 10.0 mi SW 9.2 mph 17.3 mph N/A   Clear
7:55 PM 89.6 °F 99.8 °F 75.2 °F 62% 29.93 in 10.0 mi SW 10.4 mph - N/A   Clear
8:15 PM 89.6 °F 99.8 °F 75.2 °F 62% 29.94 in 10.0 mi SW 9.2 mph - N/A   Clear
8:35 PM 89.6 °F 99.8 °F 75.2 °F 62% 29.95 in 10.0 mi SW 9.2 mph - N/A   Clear
8:56 PM 89.6 °F 99.8 °F 75.2 °F 62% 29.95 in 10.0 mi SW 8.1 mph - N/A   Clear
9:15 PM 89.6 °F 99.8 °F 75.2 °F 62% 29.96 in 10.0 mi WSW 6.9 mph - N/A   Clear
9:35 PM 87.8 °F 97.6 °F 75.2 °F 66% 29.97 in 10.0 mi SW 10.4 mph - N/A   Clear
9:55 PM 87.8 °F 97.6 °F 75.2 °F 66% 29.97 in 10.0 mi SW 10.4 mph - N/A   Clear
10:15 PM 87.8 °F 97.6 °F 75.2 °F 66% 29.96 in 10.0 mi SW 9.2 mph - N/A   Clear
10:35 PM 87.8 °F 97.6 °F 75.2 °F 66% 29.97 in 10.0 mi SW 9.2 mph 16.1 mph N/A   Clear
10:55 PM 87.8 °F 95.6 °F 73.4 °F 62% 29.96 in 10.0 mi SW 10.4 mph 17.3 mph N/A   Clear
11:15 PM 87.8 °F 97.6 °F 75.2 °F 66% 29.96 in 10.0 mi SW 11.5 mph - N/A   Clear
11:35 PM 87.8 °F 97.6 °F 75.2 °F 66% 29.96 in 10.0 mi SW 9.2 mph 21.9 mph N/A   Clear
11:55 PM 87.8 °F 97.6 °F 75.2 °F 66% 29.96 in 10.0 mi SW 11.5 mph 17.3 mph N/A   Clear